COSMOS 2251 DEB, 34611

Orbit data source: Space-Track

COSMOS 2251 DEB, 34611 is space debris in LEO originally from a launch on Wed, 16 Jun 1993 UTC launched from the Plesetsk Missile And Space Complex (PKMTR). The debris from Iridium 33, an American commercial communications satellite, has been tracked extensively since its accidental collision with the defunct Russian satellite Cosmos 2251 in 2009. This event, occurring at high speed in low Earth orbit (LEO), generated thousands of pieces of space debris, significantly increasing the risk of further collisions. The Iridium 33 debris cloud has impacted space traffic management and orbital debris mitigation strategies, making it a subject of ongoing study in space situational awareness.

Loading next visibility...
Identifier
34611, 1993-036WG
Orbit
LEO
Country
Flag of CISCIS
Related business
Manufacturer
Unknown
Mission
Spacecraft
Bus & Motor
Unknown
Mass
Unknown
Launch date (UTC)
1993-06-16 (33 years ago)
Launch vehicle
Unknown
Launch site
Plesetsk Missile And Space Complex (PKMTR)
Object type
Payload
Rocket body
Debris
Shape & HBR
Unknown shape, 0.1 m
Radar Cross Section
Medium (>0.1 m² and <1 m²)

Expand to show TLE details & history
Last TLE update: 1 day ago

TLE from 1 day ago
0 COSMOS 2251 DEB
1 34611U 93036WG  26253.29481139  .00003412  00000-0  52304-3 0  9998
2 34611  74.0511 293.3215 0024033 268.4813 215.7703 14.73871874923867
Epoch: 2026-09-10T07:04Z
TLE epoch observation values (Epoch: 2026-09-10T07:04:31.704Z)
Latitude
52.8856°
Longitude
-4.20876°
Altitude
670.738 km
Speed
7.52 km/s
True Right ascension
06h 05m 01s
True Declination
52° 43' 05"
Sunlit
Object was in daylight at epoch
Visualization orbit readout
Latitude
Unknown
Longitude
Unknown
Altitude
Unknown
Speed
Unknown
Apparent Right ascension
Unknown
Apparent Declination
Unknown
Sunlit
N/A
Visualization observer readout
Local Sidereal Time
01:38:07
Azimuth
Unknown
Elevation
Unknown
Doppler factor
Unknown
Orbital elements
Apogee altitude
663.197 km
Perigee altitude
629.434 km
Semi-major axis
7,024.453 km
Eccentricity
0.0024
Inclination
74.0511°
RAAN
293.3215°
Arg. of periapsis
268.4813°
True anomaly
215.60971°
Mean anomaly
215.7703°
Eccentric anomaly
215.68997°
Mean motion
3.68659 °/min
Orbital period
97.65 mins
BSTAR
0.00052304
Loading maneuver chart data...
Computing Atmospheric mass density...

Documentation

Showing up to 5 results
|